This is the latest recevied weather packets stored in our database for station/object WP4PW. If no packets are shown the sender has not sent any weather packets the latest 10 day(s).
| Time | Temp. | Humidity | Pressure | Rain* | Wind** | Luminosity | Snow |
|---|---|---|---|---|---|---|---|
| 1777902822 | 30° C | 75% | 1021.4 hPa | 0 mm | - | 628 W/m² | - |
| 1777902519 | 29.44° C | 76% | 1021.4 hPa | 0 mm | - | 616 W/m² | - |
| 1777902216 | 29.44° C | 76% | 1021.5 hPa | 0 mm | - | 587 W/m² | - |
| 1777901914 | 29.44° C | 78% | 1021.5 hPa | 0 mm | - | 591 W/m² | - |
| 1777901612 | 29.44° C | 78% | 1021.5 hPa | 0 mm | - | 577 W/m² | - |
| 1777901309 | 28.89° C | 77% | 1021.6 hPa | 0 mm | - | 564 W/m² | - |
| 1777901006 | 28.89° C | 78% | 1021.5 hPa | 0 mm | - | 548 W/m² | - |
| 1777900704 | 29.44° C | 79% | 1021.4 hPa | 0 mm | - | 537 W/m² | - |
| 1777900400 | 28.89° C | 79% | 1021.4 hPa | 0 mm | - | 526 W/m² | - |
| 1777900097 | 29.44° C | 77% | 1021.4 hPa | 0 mm | - | 505 W/m² | - |
| 1777899794 | 29.44° C | 78% | 1021.4 hPa | 0 mm | - | 497 W/m² | - |
| 1777899491 | 28.89° C | 79% | 1021.5 hPa | 0 mm | - | 500 W/m² | - |
| 1777899188 | 29.44° C | 78% | 1021.6 hPa | 0 mm | - | 467 W/m² | - |
| 1777898886 | 28.89° C | 80% | 1021.6 hPa | 0 mm | - | 461 W/m² | - |
| 1777898583 | 28.89° C | 81% | 1021.4 hPa | 0 mm | - | 474 W/m² | - |
| 1777898280 | 28.89° C | 81% | 1021.4 hPa | 0 mm | - | 468 W/m² | - |
| 1777897977 | 28.33° C | 82% | 1021.4 hPa | 0 mm | - | 522 W/m² | - |
| 1777897673 | 28.33° C | 82% | 1021.7 hPa | 0 mm | - | 464 W/m² | - |
| 1777897369 | 28.89° C | 79% | 1021.4 hPa | 0 mm | - | 98 W/m² | - |
| 1777897065 | 28.89° C | 79% | 1021.4 hPa | 0 mm | - | 392 W/m² | - |
| 1777896762 | 29.44° C | 79% | 1021.3 hPa | 0 mm | - | 378 W/m² | - |
| 1777896460 | 28.89° C | 80% | 1021.2 hPa | 0 mm | - | 353 W/m² | - |
| 1777896157 | 28.89° C | 82% | 1021.3 hPa | 0 mm | - | 358 W/m² | - |
| 1777895855 | 28.33° C | 82% | 1021.4 hPa | 0 mm | - | 329 W/m² | - |
| 1777895552 | 28.33° C | 82% | 1021.2 hPa | 0 mm | - | 219 W/m² | - |
* Rain latest hour (hover to see other rain measurements)
** Current wind speed in m/s (hover to see current wind gust speed)